Location: Rounton
(54.4000°N, 1.3500°W)
Time: 18:48:29
(UTC+00:00)

Vanguard 1 - Visible Passes

Search period start: 30 November 2021 00:00
Search period end: 10 December 2021 00:00
Orbit: 653 x 3830 km, 34.3° (Epoch: 29 November)

Date Brightness Start Highest point End Pass type
(mag) Time Alt. Az. Time Alt. Az. Time Alt. Az.
30 Nov 13.2 01:57:43 34° SSE 01:57:43 34° SSE 02:09:00 10° ESE visible
30 Nov 12.9 04:10:25 31° SW 04:16:21 37° SSW 04:28:43 10° SE visible
30 Nov 13.1 06:24:45 10° W 06:36:38 22° SW 06:45:05 10° S visible
01 Dec 13.8 00:04:37 15° ESE 00:04:37 15° ESE 00:07:29 10° E visible
01 Dec 13.1 02:17:19 37° SSE 02:17:19 37° SSE 02:29:46 10° ESE visible
01 Dec 12.9 04:30:00 28° SW 04:36:50 35° SSW 04:48:57 10° SE visible
01 Dec 13.3 06:46:41 10° W 06:56:38 18° SW 07:04:06 10° S visible
02 Dec 13.7 00:24:12 19° ESE 00:24:12 19° ESE 00:28:48 10° ESE visible
02 Dec 13.0 02:36:54 39° S 02:36:54 39° S 02:50:25 10° ESE visible
02 Dec 13.0 04:49:36 25° WSW 04:57:13 32° SSW 05:09:00 10° SSE visible
02 Dec 13.4 07:09:24 10° WSW 07:16:29 14° SW 07:22:16 10° SSW visible
03 Dec 13.6 00:43:48 23° ESE 00:43:48 23° ESE 00:49:53 10° ESE visible
03 Dec 13.0 02:56:29 40° S 02:56:29 40° S 03:10:56 10° ESE visible
03 Dec 13.1 05:09:11 22° WSW 05:17:30 29° SSW 05:28:51 10° SSE visible
04 Dec 13.5 01:03:23 27° SE 01:03:23 27° SE 01:10:48 10° ESE visible
04 Dec 13.0 03:16:05 39° SSW 03:16:32 39° SSW 03:31:20 10° SE visible
04 Dec 13.2 05:28:46 18° WSW 05:37:39 25° SW 05:48:24 10° S visible
05 Dec 13.4 01:22:59 30° SE 01:22:59 30° SE 01:31:36 10° ESE visible
05 Dec 13.0 03:35:41 37° SSW 03:37:04 38° SSW 03:51:35 10° SE visible
05 Dec 13.3 05:48:22 15° WSW 05:57:39 21° SW 06:07:31 10° S visible
06 Dec 13.3 01:42:36 33° SE 01:42:36 33° SE 01:52:17 10° ESE visible
06 Dec 13.1 03:55:18 34° SW 03:57:30 35° SSW 04:11:40 10° SE visible
06 Dec 13.4 06:08:00 11° WSW 06:17:32 17° SW 06:26:00 10° SSW visible
06 Dec 14.0 23:49:32 13° ESE 23:49:32 13° ESE 23:50:49 10° ESE visible
07 Dec 13.2 02:02:14 35° SSE 02:02:14 35° SSE 02:12:51 10° ESE visible
07 Dec 13.1 04:14:56 31° SW 04:17:49 32° SSW 04:31:31 10° SSE visible
07 Dec 13.6 06:30:36 10° WSW 06:37:16 13° SW 06:43:06 10° SW visible
08 Dec 13.9 00:09:11 15° ESE 00:09:11 15° ESE 00:11:47 10° ESE visible
08 Dec 13.2 02:21:54 36° SSE 02:21:54 36° SSE 02:33:16 10° SE visible
08 Dec 13.2 04:34:35 27° SW 04:38:00 28° SW 04:51:04 10° SSE visible
09 Dec 13.8 00:28:52 18° ESE 00:28:52 18° ESE 00:32:37 10° ESE visible
09 Dec 13.2 02:41:34 36° S 02:41:34 36° S 02:53:32 10° SE visible
09 Dec 13.4 04:54:17 23° SW 04:58:04 24° SW 05:10:13 10° S visible
09 Dec 13.8 21:55:15 10° SSW 21:55:15 10° SSW 21:55:15 10° SSW visible
